Jacksonville, FL

1:40 PM EDT on August 28, 2016 (GMT -0400)
Cecil

Weather History for KVQQ - August, 2013

Change the Weather History Date:

Sunday, August 18, 2013

  Actual Average (KJAX) Record (KJAX)
Temperature  
Mean Temperature 80 °F 82 °F  
Max Temperature 89 °F 91 °F 98 °F (1954)
Min Temperature 71 °F 73 °F 67 °F (1945)
Degree Days  
Heating Degree Days 0 0  
Month to date heating degree days 0  
Since 1 June heating degree days 0  
Since 1 July heating degree days 0  
Cooling Degree Days 15 17  
Month to date cooling degree days 307  
Year to date cooling degree days 1776  
Since 1 June cooling degree days 1292  
Growing Degree Days 30 (Base 50)    
Moisture  
Dew Point 75 °F    
Average Humidity 93    
Maximum Humidity 100    
Minimum Humidity 66    
Precipitation  
Precipitation 0.00 in 0.21 in 3.26 in (1946)
Month to date precipitation 3.65  
Year to date precipitation 32.21  
Snow  
Snow 0.00 in 0.00 in 0.00 in (2002)
Month to date snowfall 0.0  
Since 1 June snowfall 0.0  
Since 1 July snowfall 0.0  
Snow Depth -    
Sea Level Pressure  
Sea Level Pressure 30.10 in    
Wind  
Wind Speed 2 mph (East)    
Max Wind Speed 16 mph    
Max Gust Speed -    
Visibility 8 miles    
Events      
T = Trace of Precipitation, MM = Missing Value Source: NWS Daily Summary

Daily Weather History Graph

Daily Weather History Graph

Search for Another Location

Airport or City:

Trip Planner

Search our weather history database for the weather conditions in past years. The results will help you decide how hot, cold, wet, or windy it might be!

Date:

Astronomy

Aug. 18, 2013 Rise Set
Actual Time 6:56 AM EDT 8:05 PM EDT
Civil Twilight 6:31 AM EDT 8:30 PM EDT
Nautical Twilight 6:01 AM EDT 9:00 PM EDT
Astronomical Twilight 5:31 AM EDT 9:30 PM EDT
Moon 6:06 PM EDT (8/18) 4:10 AM EDT (8/18)
Length of Visible Light 13h 59m
Length of Day
13h 09m
Waxing Gibbous, 92% of the Moon is Illuminated
Aug 18
Waxing Gibbous
Aug 20
Full
Aug 28
Last Quarter
Sep 5
New
Sep 12
First Quarter

Hourly Weather History & Observations

Time (EDT) Temp. Heat Index Dew Point Humidity Pressure Visibility Wind Dir Wind Speed Gust Speed Precip Events Conditions
12:15 AM 73.4 °F - 73.4 °F 100% 30.13 in 10.0 mi Calm Calm - N/A   Scattered Clouds
1:15 AM 73.4 °F - 73.4 °F 100% 30.13 in 9.0 mi Calm Calm - N/A   Clear
1:35 AM 73.4 °F - 73.4 °F 100% 30.12 in 6.0 mi Calm Calm - N/A   Clear
1:55 AM 73.4 °F - 73.4 °F 100% 30.11 in 5.0 mi Calm Calm - N/A   Clear
2:35 AM 71.6 °F - 71.6 °F 100% 30.09 in 4.0 mi Calm Calm - N/A   Clear
2:55 AM 71.6 °F - 71.6 °F 100% 30.09 in 5.0 mi Calm Calm - N/A   Clear
3:15 AM 71.6 °F - 71.6 °F 100% 30.09 in 5.0 mi Calm Calm - N/A   Clear
3:35 AM 71.6 °F - 71.6 °F 100% 30.08 in 5.0 mi Calm Calm - N/A   Clear
3:55 AM 73.4 °F - 73.4 °F 100% 30.08 in 7.0 mi Calm Calm - N/A   Clear
4:15 AM 71.6 °F - 71.6 °F 100% 30.07 in 4.0 mi Calm Calm - N/A   Clear
4:35 AM 71.6 °F - 71.6 °F 100% 30.08 in 8.0 mi Calm Calm - N/A   Clear
4:55 AM 71.6 °F - 71.6 °F 100% 30.08 in 7.0 mi Calm Calm - N/A   Clear
5:15 AM 71.6 °F - 71.6 °F 100% 30.09 in 4.0 mi Calm Calm - N/A   Clear
6:15 AM 73.4 °F - 73.4 °F 100% 30.10 in 5.0 mi Calm Calm - N/A   Mostly Cloudy
6:35 AM 73.4 °F - 73.4 °F 100% 30.11 in 5.0 mi Calm Calm - N/A   Mostly Cloudy
6:50 AM 73.4 °F - 73.4 °F 100% 30.10 in 6.0 mi Calm Calm - N/A   Mostly Cloudy
7:50 AM 73.4 °F - 73.4 °F 100% 30.11 in 3.0 mi Calm Calm - N/A   Scattered Clouds
8:50 AM 77.0 °F - 77.0 °F 100% 30.12 in 6.0 mi North 5.8 mph - N/A   Scattered Clouds
9:50 AM 77.0 °F - 77.0 °F 100% 30.14 in 6.0 mi North 5.8 mph - N/A   Mostly Cloudy
10:50 AM 84.2 °F 96.1 °F 78.8 °F 84% 30.14 in 10.0 mi East 5.8 mph - N/A   Scattered Clouds
11:50 AM 84.2 °F 94.1 °F 77.0 °F 79% 30.14 in 10.0 mi East 11.5 mph - N/A   Mostly Cloudy
12:50 PM 86.0 °F 96.9 °F 77.0 °F 74% 30.12 in 10.0 mi East 5.8 mph - N/A   Mostly Cloudy
1:50 PM 89.6 °F 102.2 °F 77.0 °F 66% 30.10 in 10.0 mi ESE 13.8 mph - N/A   Mostly Cloudy
2:50 PM 84.2 °F 92.3 °F 75.2 °F 74% 30.09 in 10.0 mi ESE 8.1 mph - N/A   Mostly Cloudy
3:50 PM 87.8 °F 99.7 °F 77.0 °F 70% 30.06 in 10.0 mi East 10.4 mph - N/A   Mostly Cloudy
4:50 PM 87.8 °F 97.6 °F 75.2 °F 66% 30.05 in 10.0 mi ESE 11.5 mph - N/A   Scattered Clouds
5:50 PM 84.2 °F 90.9 °F 73.4 °F 70% 30.05 in 10.0 mi ESE 13.8 mph - N/A   Scattered Clouds
6:50 PM 84.2 °F 92.3 °F 75.2 °F 74% 30.07 in 10.0 mi ESE 16.1 mph - N/A   Scattered Clouds
7:50 PM 80.6 °F 86.2 °F 75.2 °F 84% 30.09 in 10.0 mi Variable 3.5 mph - N/A   Clear
8:15 PM 80.6 °F 87.1 °F 77.0 °F 89% 30.09 in 10.0 mi Calm Calm - N/A   Clear
8:35 PM 78.8 °F - 77.0 °F 94% 30.09 in 10.0 mi Calm Calm - N/A   Clear
8:55 PM 77.0 °F - 77.0 °F 100% 30.09 in 9.0 mi Calm Calm - N/A   Clear
9:15 PM 77.0 °F - 77.0 °F 100% 30.10 in 9.0 mi Calm Calm - N/A   Clear
9:35 PM 77.0 °F - 77.0 °F 100% 30.10 in 9.0 mi Calm Calm - N/A   Clear
9:55 PM 77.0 °F - 77.0 °F 100% 30.11 in 10.0 mi Calm Calm - N/A   Clear
10:15 PM 77.0 °F - 77.0 °F 100% 30.11 in 9.0 mi Calm Calm - N/A   Clear
10:35 PM 77.0 °F - 77.0 °F 100% 30.11 in 10.0 mi Calm Calm - N/A   Clear
10:55 PM 75.2 °F - 75.2 °F 100% 30.11 in 7.0 mi Calm Calm - N/A   Clear
11:15 PM 75.2 °F - 75.2 °F 100% 30.12 in 8.0 mi Calm Calm - N/A   Clear
11:35 PM 75.2 °F - 75.2 °F 100% 30.13 in 5.0 mi Calm Calm - N/A   Clear
11:55 PM 75.2 °F - 75.2 °F 100% 30.12 in 6.0 mi Calm Calm - N/A   Clear